User: anonymous   Login
Location: Unspecified
(0.0000°N, 0.0000°E)
Time: 22:32:54
(UTC+00:00)
Language:

OPS 7613 P/L 1 - Orbit

View from above orbital plane
View from above orbital plane
View from above satellite
View from above satellite

Ground track
Ground track

The orbit data is extracted from the following two-line orbital elements,

1 04256U 69082B   18175.18757886 -.00000020  00000-0  23598-4 0  9998
2 04256  70.0108 100.7353 0021904 278.4202  81.4422 13.98298310482891
Epoch (UTC): 24 June 2018 04:30:06
Eccentricity: 0.0021904
inclination: 70.0108°
perigee height: 884 km
apogee height: 915 km
right ascension of ascending node: 100.7353°
argument of perigee: 278.4202°
revolutions per day: 13.98298310
mean anomaly at epoch: 81.4422°
orbit number at epoch: 48289

The dashed part of the orbit path shows where the satellite is in the earth's shadow,  

DLR